[[{"header":{"parameterUnit":"m.s-1","parameterCategory":1,"la1":30.2992,"la2":30.254,"lo1":-89.0895,"lo2":-89.0443,"dy":0.0025,"dx":0.0025,"nx":19,"ny":19,"refTime":"2026-03-14T03:00:00:Z","depth":0,"parameterNumber":2,"parameterNumberName":"U-component_of_WINDS"},"data":[0,0,0,-3.4019,-3.4023,-3.4203,-3.4204,-3.4434,-3.4437,0,0,0,0,0,0,0,0,0,0,0,-3.3967,-3.3968,-3.4019,-3.4024,-3.4203,-3.4204,-3.4434,-3.4437,0,0,0,0,0,0,0,0,0,0,0,-3.3966,-3.3968,-3.397,-3.4024,-3.4203,-3.4204,-3.4434,-3.4298,0,0,0,0,0,0,0,0,0,0,-3.4123,-3.4075,-3.3967,-3.397,-3.4025,-3.4203,-3.4204,-3.4291,-3.4306,-3.4353,0,-3.4395,0,-3.442,-3.4452,-3.4453,0,0,0,-3.4023,-3.4062,-3.411,-3.397,-3.4027,-3.4202,-3.4122,-3.43,-3.4317,-3.4373,-3.4399,-3.4407,-3.4423,-3.4453,-3.4455,-3.4726,-3.4727,0,0,-3.4013,-3.3999,-3.4098,-3.4121,-3.4093,-3.4116,-3.4128,-3.431,-3.4337,-3.4399,-3.4413,-3.4427,-3.4455,-3.4457,-3.4725,-3.4726,0,0,0,-3.3985,-3.3992,-3.4036,-3.4112,-3.4144,-3.4121,-3.4134,-3.4329,-3.4344,-3.4415,-3.443,-3.4456,-3.4459,-3.4724,-3.4725,-3.4773,0,0,0,-3.3979,-3.3976,-3.4031,-3.4025,-3.4141,-3.4239,-3.4149,-3.4331,-3.4352,-3.4429,-3.4456,-3.4461,-3.4722,-3.4725,-3.4769,-3.4798,0,0,0,-3.3955,-3.3973,-3.3999,-3.4024,-3.41,-3.4236,-3.4262,-3.4336,-3.4361,-3.4453,-3.4462,-3.4721,-3.4724,-3.4765,-3.4792,-3.4864,0,0,0,-3.3925,-3.404,-3.4,-3.4135,-3.4099,-3.4265,-3.4261,-3.4385,-3.447,-3.4458,-3.4722,-3.4725,-3.4764,-3.4788,-3.486,-3.4921,-3.4945,0,0,-3.4063,-3.4057,-3.4137,-3.4106,-3.4275,-3.4238,-3.4415,-3.4506,-3.4529,-3.4659,-3.4666,-3.477,-3.4791,-3.4863,-3.5091,-3.511,0,0,0,-3.4176,-3.4233,-3.4281,-3.4361,-3.4433,-3.4496,-3.4562,-3.4596,-3.4707,-3.4593,-3.4818,-3.483,-3.4873,-3.4903,-3.4919,-3.4956,-3.4739,-3.4739,-3.4738,-3.435,-3.4371,-3.4506,-3.4548,-3.4626,-3.4692,-3.4756,-3.4812,-3.4813,-3.4865,-3.4903,-3.5039,-3.5073,-3.5086,-3.5124,-3.4939,-3.4939,-3.494,-3.494,-3.4553,-3.4636,-3.4633,-3.4761,-3.4784,-3.4892,-3.496,-3.4956,-3.506,-3.5012,-3.5051,-3.4995,-3.5106,-3.5141,-3.4944,-3.4943,-3.4942,-3.4942,-3.4942,-3.4667,-3.4711,-3.475,-3.4866,-3.4953,-3.4993,-3.5092,-3.511,-3.5127,-3.5165,-3.5206,-3.5206,-3.5205,-3.5184,-3.5184,-3.5185,-3.5185,-3.5186,-3.5186,-3.477,-3.4813,-3.4894,-3.498,-3.5032,-3.5103,-3.5171,-3.5223,-3.5285,-3.529,-3.529,-3.5284,-3.5114,-3.5069,-3.5193,-3.5192,-3.5191,-3.519,-3.519,-3.4965,-3.4923,-3.5049,-3.5101,-3.5202,-3.5287,-3.5308,-3.5413,-3.5459,-3.5507,-3.5493,-3.5365,-3.536,-3.5347,-3.531,-3.5489,-3.5489,-3.5489,-3.5489,-3.506,-3.5059,-3.5191,-3.5273,-3.5356,-3.5387,-3.5528,-3.5581,-3.563,-3.566,-3.5637,-3.559,-3.5577,-3.558,-3.5562,-3.5527,-3.5758,-3.5758,-3.5758,-3.518,-3.5188,-3.5304,-3.535,-3.543,-3.5499,-3.5631,-3.5726,-3.5773,-3.5769,-3.5683,-3.5672,-3.5597,-3.5572,-3.5564,-3.5536,-3.5473,0,0]},{"header":{"parameterUnit":"m.s-1","parameterCategory":1,"la1":30.2992,"la2":30.254,"lo1":-89.0895,"lo2":-89.0443,"dy":0.0025,"dx":0.0025,"nx":19,"ny":19,"refTime":"2026-03-14T03:00:00:Z","depth":0,"parameterNumber":3,"parameterNumberName":"V-component_of_WINDS"},"data":[0,0,0,3.3929,3.3931,3.4001,3.4002,3.4109,3.411,0,0,0,0,0,0,0,0,0,0,0,3.3921,3.3922,3.3929,3.3931,3.4001,3.4002,3.4109,3.411,0,0,0,0,0,0,0,0,0,0,0,3.392,3.3922,3.3923,3.3931,3.4001,3.4002,3.4109,3.4049,0,0,0,0,0,0,0,0,0,0,3.3977,3.3983,3.3922,3.3923,3.3932,3.4001,3.4002,3.4046,3.4052,3.4085,0,3.412,0,3.4117,3.4119,3.4119,0,0,0,3.3921,3.3977,3.3985,3.3924,3.3933,3.4001,3.3967,3.4049,3.4057,3.4095,3.4122,3.4125,3.4119,3.412,3.412,3.4349,3.4351,0,0,3.3917,3.394,3.398,3.3991,3.3983,3.3965,3.3969,3.4054,3.4083,3.4122,3.4127,3.4121,3.412,3.4121,3.4348,3.435,0,0,0,3.3913,3.3938,3.3943,3.3987,3.3998,3.3967,3.3972,3.408,3.4079,3.4128,3.4122,3.4121,3.4123,3.4346,3.4349,3.4448,0,0,0,3.391,3.3935,3.3942,3.3957,3.3997,3.404,3.3997,3.4074,3.4082,3.4122,3.4121,3.4124,3.4344,3.4347,3.4441,3.449,0,0,0,3.3912,3.3935,3.395,3.3958,3.3989,3.4038,3.4043,3.4075,3.4079,3.4119,3.4124,3.4343,3.4347,3.4436,3.4481,3.4557,0,0,0,3.392,3.4037,3.3952,3.408,3.3989,3.41,3.4042,3.4123,3.417,3.4122,3.4345,3.4348,3.4434,3.4475,3.4551,3.4625,3.4658,0,0,3.408,3.4057,3.413,3.4056,3.4189,3.4088,3.4234,3.4253,3.4235,3.4312,3.4317,3.4443,3.448,3.4556,3.4838,3.4864,0,0,0,3.4188,3.4241,3.4271,3.4317,3.4336,3.4356,3.4351,3.4358,3.4422,3.428,3.4491,3.4512,3.4556,3.459,3.4612,3.4647,3.4365,3.4365,3.4365,3.4446,3.4418,3.4537,3.4517,3.4563,3.4557,3.459,3.4598,3.4555,3.4606,3.4628,3.4803,3.4844,3.4861,3.4898,3.4665,3.4666,3.4666,3.4666,3.4677,3.4746,3.4688,3.4782,3.4751,3.4829,3.4828,3.4795,3.4861,3.4784,3.482,3.4737,3.4891,3.4921,3.4674,3.4672,3.4671,3.4671,3.467,3.4842,3.487,3.4878,3.4942,3.4994,3.4969,3.5036,3.5005,3.4976,3.5013,3.5032,3.503,3.5024,3.5024,3.5025,3.5026,3.5026,3.5026,3.5027,3.501,3.5015,3.5077,3.5107,3.5133,3.5162,3.5157,3.518,3.5198,3.517,3.517,3.5121,3.4912,3.4859,3.5036,3.5034,3.5033,3.5032,3.5032,3.5252,3.5192,3.5288,3.5313,3.5346,3.5399,3.5359,3.5409,3.5424,3.5458,3.5402,3.5252,3.5225,3.5207,3.5163,3.5408,3.5408,3.5408,3.5408,3.5391,3.5375,3.5465,3.5508,3.5546,3.552,3.5626,3.5623,3.561,3.5617,3.5578,3.5517,3.55,3.5483,3.5459,3.5417,3.5722,3.5722,3.5722,3.5538,3.5524,3.5622,3.561,3.5633,3.5653,3.5752,3.5802,3.5775,3.5734,3.5622,3.5609,3.5511,3.5481,3.5436,3.5399,3.5323,0,0]}]]